• In Uzbekistan
  • List of Countries
  • For 7 days
  • Water Temperature
  • Satellite Maps
  • Weather Map
  • Weather Widgets
  • user-avatar
    Login

    Hourly Weather Vanadzor

    Today, 21 September, Thursday

    Time Temperature Precipitation Wind Pressure Humidity
    00:00 +16°C° 0 mm 1 mps 638 mmHg 65%
    01:00 +15°C° 0 mm 1 mps 638 mmHg 66%
    02:00 +15°C° 0 mm 1 mps 638 mmHg 66%
    03:00 +16°C° 0 mm 1 mps 638 mmHg 71%
    04:00 +15°C° 0 mm 1 mps 638 mmHg 69%
    05:00 +15°C° 0 mm 1 mps 638 mmHg 67%
    06:00 +15°C° 0 mm 1 mps 638 mmHg 66%
    07:00 +19°C° 0 mm 1 mps 638 mmHg 56%
    08:00 +21°C° 0 mm 1 mps 639 mmHg 46%
    09:00 +24°C° 0 mm 1 mps 640 mmHg 36%
    10:00 +25°C° 0 mm 2 mps 640 mmHg 33%
    11:00 +27°C° 0 mm 2 mps 640 mmHg 30%
    12:00 +28°C° 0 mm 2 mps 640 mmHg 27%
    13:00 +28°C° 0 mm 2 mps 640 mmHg 27%
    14:00 +28°C° 0 mm 2 mps 639 mmHg 28%
    15:00 +28°C° 0 mm 3 mps 639 mmHg 28%
    16:00 +26°C° 0.1 mm 2 mps 638 mmHg 35%
    17:00 +24°C° 0.1 mm 2 mps 637 mmHg 43%
    18:00 +21°C° 0.1 mm 1 mps 637 mmHg 50%
    19:00 +20°C° 0.1 mm 1 mps 637 mmHg 56%
    20:00 +19°C° 0.1 mm 2 mps 637 mmHg 62%
    21:00 +18°C° 0.1 mm 2 mps 637 mmHg 68%
    22:00 +17°C° 0 mm 2 mps 637 mmHg 71%
    23:00 +16°C° 0 mm 2 mps 637 mmHg 74%

    Tomorrow, 22 September, Friday

    Time Temperature Precipitation Wind Pressure Humidity
    00:00 +16°C° 0 mm 2 mps 637 mmHg 78%
    01:00 +15°C° 0 mm 2 mps 636 mmHg 80%
    02:00 +15°C° 0 mm 1 mps 636 mmHg 82%
    03:00 +14°C° 0 mm 1 mps 636 mmHg 84%
    04:00 +14°C° 0 mm 1 mps 636 mmHg 83%
    05:00 +14°C° 0 mm 1 mps 636 mmHg 83%
    06:00 +14°C° 0 mm 1 mps 636 mmHg 82%
    07:00 +16°C° 0 mm 1 mps 636 mmHg 69%
    08:00 +20°C° 0 mm 1 mps 637 mmHg 57%
    09:00 +23°C° 0 mm 2 mps 638 mmHg 44%
    10:00 +24°C° 0 mm 2 mps 638 mmHg 39%
    11:00 +25°C° 0 mm 2 mps 638 mmHg 35%
    12:00 +27°C° 0 mm 2 mps 638 mmHg 30%
    13:00 +27°C° 0 mm 2 mps 638 mmHg 30%
    14:00 +27°C° 0 mm 2 mps 637 mmHg 30%
    15:00 +27°C° 0 mm 2 mps 637 mmHg 30%
    16:00 +25°C° 0.1 mm 2 mps 636 mmHg 38%
    17:00 +23°C° 0.1 mm 2 mps 636 mmHg 45%
    18:00 +21°C° 0.1 mm 1 mps 635 mmHg 52%
    19:00 +19°C° 0.1 mm 2 mps 636 mmHg 59%
    20:00 +18°C° 0.1 mm 2 mps 636 mmHg 66%
    21:00 +17°C° 0.1 mm 2 mps 636 mmHg 72%
    22:00 +16°C° 0.1 mm 2 mps 636 mmHg 74%
    23:00 +15°C° 0.1 mm 2 mps 636 mmHg 76%

    Day after tomorrow, 23 September, Saturday

    Time Temperature Precipitation Wind Pressure Humidity
    00:00 +15°C° 0.1 mm 2 mps 636 mmHg 78%
    01:00 +15°C° 0 mm 2 mps 636 mmHg 76%
    02:00 +14°C° 0 mm 2 mps 636 mmHg 74%
    03:00 +14°C° 0 mm 2 mps 636 mmHg 73%
    04:00 +14°C° 0 mm 2 mps 636 mmHg 72%
    05:00 +13°C° 0 mm 1 mps 636 mmHg 72%
    06:00 +13°C° 0 mm 1 mps 636 mmHg 72%
    07:00 +15°C° 0 mm 1 mps 637 mmHg 64%
    08:00 +19°C° 0 mm 1 mps 638 mmHg 56%
    09:00 +21°C° 0 mm 1 mps 638 mmHg 48%
    10:00 +23°C° 0 mm 2 mps 639 mmHg 44%
    11:00 +24°C° 0 mm 2 mps 639 mmHg 40%
    12:00 +25°C° 0 mm 2 mps 639 mmHg 36%
    13:00 +25°C° 0.2 mm 3 mps 638 mmHg 37%
    14:00 +25°C° 0.2 mm 3 mps 638 mmHg 37%
    15:00 +25°C° 0.2 mm 3 mps 638 mmHg 37%
    16:00 +23°C° 0.6 mm 2 mps 637 mmHg 46%
    17:00 +20°C° 0.6 mm 2 mps 637 mmHg 55%
    18:00 +19°C° 0.6 mm 1 mps 637 mmHg 64%
    19:00 +17°C° 0.5 mm 2 mps 637 mmHg 71%
    20:00 +16°C° 0.5 mm 2 mps 637 mmHg 77%
    21:00 +15°C° 0.5 mm 2 mps 637 mmHg 83%
    22:00 +14°C° 0 mm 2 mps 638 mmHg 85%
    23:00 +14°C° 0 mm 2 mps 638 mmHg 87%

    24 September, Sunday

    Time Temperature Precipitation Wind Pressure Humidity
    00:00 +13°C° 0 mm 2 mps 638 mmHg 88%
    01:00 +13°C° 0 mm 2 mps 638 mmHg 88%
    02:00 +12°C° 0 mm 2 mps 638 mmHg 88%
    03:00 +12°C° 0 mm 2 mps 638 mmHg 88%
    04:00 +12°C° 0 mm 2 mps 638 mmHg 87%
    05:00 +12°C° 0 mm 2 mps 638 mmHg 86%
    06:00 +10°C° 0 mm 2 mps 638 mmHg 85%
    07:00 +14°C° 0 mm 1 mps 639 mmHg 75%
    08:00 +16°C° 0 mm 1 mps 639 mmHg 64%
    09:00 +19°C° 0 mm 1 mps 640 mmHg 54%
    10:00 +21°C° 0 mm 1 mps 640 mmHg 49%
    11:00 +21°C° 0 mm 2 mps 640 mmHg 44%
    12:00 +23°C° 0 mm 2 mps 641 mmHg 39%
    13:00 +24°C° 0 mm 2 mps 640 mmHg 38%
    14:00 +24°C° 0 mm 2 mps 640 mmHg 37%
    15:00 +24°C° 0 mm 2 mps 640 mmHg 37%
    16:00 +21°C° 0 mm 2 mps 640 mmHg 44%
    17:00 +19°C° 0 mm 2 mps 639 mmHg 52%
    18:00 +18°C° 0 mm 1 mps 639 mmHg 60%
    19:00 +16°C° 0 mm 2 mps 639 mmHg 65%
    20:00 +15°C° 0 mm 2 mps 639 mmHg 71%
    21:00 +14°C° 0 mm 2 mps 639 mmHg 76%
    22:00 +14°C° 0.1 mm 2 mps 639 mmHg 76%
    23:00 +13°C° 0.1 mm 2 mps 639 mmHg 76%

    25 September, Monday

    Time Temperature Precipitation Wind Pressure Humidity
    00:00 +13°C° 0.1 mm 2 mps 639 mmHg 76%
    01:00 +12°C° 0 mm 2 mps 639 mmHg 76%
    02:00 +12°C° 0 mm 1 mps 638 mmHg 76%
    03:00 +12°C° 0 mm 1 mps 638 mmHg 76%
    04:00 +11°C° 0 mm 1 mps 638 mmHg 76%
    05:00 +11°C° 0 mm 1 mps 638 mmHg 76%
    06:00 +11°C° 0 mm 1 mps 638 mmHg 77%
    07:00 +13°C° 0 mm 1 mps 639 mmHg 67%
    08:00 +16°C° 0 mm 1 mps 639 mmHg 57%
    09:00 +19°C° 0 mm 1 mps 640 mmHg 47%
    10:00 +20°C° 0 mm 2 mps 640 mmHg 43%
    11:00 +21°C° 0 mm 2 mps 640 mmHg 40%
    12:00 +23°C° 0 mm 2 mps 640 mmHg 36%
    13:00 +23°C° 0 mm 2 mps 640 mmHg 35%
    14:00 +24°C° 0 mm 2 mps 640 mmHg 35%
    15:00 +24°C° 0 mm 3 mps 639 mmHg 35%
    16:00 +21°C° 0 mm 2 mps 639 mmHg 43%
    17:00 +18°C° 0 mm 2 mps 638 mmHg 51%
    18:00 +16°C° 0 mm 1 mps 638 mmHg 59%
    19:00 +15°C° 0 mm 1 mps 638 mmHg 66%
    20:00 +14°C° 0 mm 1 mps 638 mmHg 73%
    21:00 +13°C° 0 mm 1 mps 638 mmHg 80%
    22:00 +13°C° 0 mm 1 mps 638 mmHg 82%
    23:00 +13°C° 0 mm 1 mps 637 mmHg 85%

    26 September, Tuesday

    Time Temperature Precipitation Wind Pressure Humidity
    00:00 +12°C° 0 mm 1 mps 637 mmHg 88%
    01:00 +12°C° 0 mm 1 mps 637 mmHg 89%
    02:00 +11°C° 0 mm 1 mps 637 mmHg 90%
    03:00 +11°C° 0 mm 1 mps 637 mmHg 92%
    04:00 +11°C° 0 mm 1 mps 637 mmHg 91%
    05:00 +11°C° 0 mm 1 mps 637 mmHg 91%
    06:00 +11°C° 0 mm 1 mps 637 mmHg 90%
    07:00 +13°C° 0 mm 1 mps 637 mmHg 79%
    08:00 +15°C° 0 mm 2 mps 638 mmHg 67%
    09:00 +17°C° 0 mm 2 mps 638 mmHg 56%
    10:00 +18°C° 0 mm 2 mps 638 mmHg 52%
    11:00 +20°C° 0 mm 2 mps 638 mmHg 48%
    12:00 +21°C° 0 mm 3 mps 638 mmHg 44%
    13:00 +21°C° 0.1 mm 3 mps 638 mmHg 45%
    14:00 +21°C° 0.1 mm 3 mps 637 mmHg 46%
    15:00 +21°C° 0.1 mm 3 mps 637 mmHg 47%
    16:00 +19°C° 0.2 mm 2 mps 636 mmHg 56%
    17:00 +17°C° 0.2 mm 2 mps 636 mmHg 66%
    18:00 +16°C° 0.2 mm 2 mps 635 mmHg 76%
    19:00 +15°C° 0.1 mm 2 mps 636 mmHg 80%
    20:00 +14°C° 0.1 mm 2 mps 636 mmHg 85%
    21:00 +14°C° 0.1 mm 2 mps 636 mmHg 89%
    22:00 +14°C° 0 mm 2 mps 636 mmHg 91%
    23:00 +13°C° 0 mm 2 mps 636 mmHg 92%
    Show more